Weather History for Calgary Springbank, AB

Change the Weather History Date:

Wednesday, May 8, 2013

  Actual Average Record
Temperature  
Mean Temperature 51 °F -  
Max Temperature 68 °F 57 °F 73 °F (2007)
Min Temperature 34 °F 35 °F 8 °F (2002)
Degree Days  
Heating Degree Days 14    
Growing Degree Days 1 (Base 50)    
Moisture  
Dew Point 33 °F    
Average Humidity 45    
Maximum Humidity 81    
Minimum Humidity 18    
Precipitation  
Precipitation 0.00 in - - ()
Sea Level Pressure  
Sea Level Pressure 30.16 in    
Wind  
Wind Speed 8 mph ()    
Max Wind Speed 17 mph    
Max Gust Speed 24 mph    
Visibility 17.5 miles    
Events      
Averages and records for this station are not official NWS values.
T = Trace of Precipitation, MM = Missing Value Source: Averaged Metar Reports

Daily Weather History Graph

Daily Weather History Graph

Search for Another Location

Airport:

Trip Planner

Search our weather history database for the weather conditions in past years. The results will help you decide how hot, cold, wet, or windy it might be!

Date:

Astronomy

May. 08, 2013 Rise Set
Actual Time 5:57 AM MDT 9:11 PM MDT
Civil Twilight 5:18 AM MDT 9:50 PM MDT
Nautical Twilight 4:26 AM MDT 10:43 PM MDT
Astronomical Twilight 3:18 AM MDT 11:52 PM MDT
Moon 5:17 AM MDT (5/8) 8:08 PM MDT (5/8)
Length of Visible Light 16h 32m
Length of Day
15h 13m
Waning Crescent, 2% of the Moon is Illuminated
May 8
Waning Crescent
May 9
New
May 17
First Quarter
May 24
Full
May 31
Last Quarter

Hourly Weather History & Observations

Time (MDT) Temp. Windchill Dew Point Humidity Pressure Visibility Wind Dir Wind Speed Gust Speed Precip Events Conditions
5:00 AM 37.4 °F 31.4 °F 28.4 °F 70% 30.21 in 20.0 mi SSE 8.1 mph - N/A   Scattered Clouds
6:00 AM 35 °F - 29 °F 69% 30.20 in 28 mi SE 6.9 mph - -   Scattered Clouds
6:00 AM 35.6 °F 29.9 °F 28.4 °F 75% 30.20 in 30.0 mi SE 6.9 mph - N/A   Mostly Cloudy
7:00 AM 35.6 °F 31.7 °F 30.2 °F 81% 30.21 in 30.0 mi ESE 4.6 mph - N/A   Mostly Cloudy
8:00 AM 41.0 °F 36.4 °F 30.2 °F 65% 30.20 in 30.0 mi SSE 6.9 mph - N/A   Mostly Cloudy
9:00 AM 44.6 °F 39.7 °F 32.0 °F 61% 30.20 in 30.0 mi SE 9.2 mph - N/A   Mostly Cloudy
10:00 AM 50.0 °F - 32.0 °F 50% 30.19 in 30.0 mi SE 9.2 mph - N/A   Scattered Clouds
11:00 AM 53.6 °F - 32.0 °F 44% 30.19 in 30.0 mi SSE 9.2 mph 17.3 mph N/A   Mostly Cloudy
12:00 PM 58 °F - 34 °F 29% 30.17 in 28 mi Calm Calm - -   Scattered Clouds
12:00 PM 59.0 °F - 33.8 °F 39% 30.17 in 30.0 mi SE 4.6 mph - N/A   Mostly Cloudy
1:00 PM 62.6 °F - - N/A% 30.15 in 30.0 mi SE 17.3 mph - N/A   Mostly Cloudy
2:00 PM 66.2 °F - 37.4 °F 35% 30.13 in 30.0 mi SE 12.7 mph 20.7 mph N/A   Scattered Clouds
3:00 PM 66.2 °F - 35.6 °F 32% 30.13 in 30.0 mi SE 10.4 mph - N/A   Scattered Clouds
4:00 PM 68.0 °F - 33.8 °F 28% 30.12 in 30.0 mi ESE 5.8 mph 19.6 mph N/A   Scattered Clouds
5:00 PM 68.0 °F - 35.6 °F 30% 30.12 in 30.0 mi SSE 9.2 mph 18.4 mph N/A   Scattered Clouds
6:00 PM 68 °F - 35 °F 18% 30.12 in 28 mi SE 10.4 mph - -   Scattered Clouds
6:00 PM 68.0 °F - 33.8 °F 28% 30.12 in 30.0 mi SSE 10.4 mph - N/A   Scattered Clouds
7:00 PM 66.2 °F - 35.6 °F 32% 30.13 in 30.0 mi SSE 11.5 mph - N/A   Mostly Cloudy
8:00 PM 62.6 °F - 33.8 °F 34% 30.13 in 30.0 mi ESE 17.3 mph 24.2 mph N/A   Scattered Clouds
9:00 PM 57.2 °F - 32.0 °F 38% 30.16 in 30.0 mi SE 12.7 mph - N/A   Partly Cloudy
10:00 PM 53.6 °F - 32.0 °F 44% 30.13 in 15.0 mi SE 9.2 mph - N/A   Clear